Location: Peterborough
(44.3091°N, 78.3197°W)
Time: 00:14:59
(UTC-04:00)

Vanguard 2 Rocket - Pass Details

Date: 29 March 2023
Orbit: 554 x 3314 km, 32.9° (Epoch: 02 June)

Event Time Altitude Azimuth Distance (km) Brightness Sun altitude
Rises 02:14:21 0° 266° (W) 5,282 - -40.8°
Reaches altitude 10° 02:18:58 10° 250° (WSW) 4,749 - -40.5°
Maximum altitude 02:27:35 19° 212° (SSW) 4,735 - -39.9°
Drops below altitude 10° 02:38:23 10° 176° (S) 6,054 - -39.1°
Sets 02:45:45 0° 161° (SSE) 7,264 - -38.5°
